www.pogodaiklimat.ru

Погода и климат >> Архив погоды >> Алжир >> Сиди-Бель-Аббес


ПОГОДА в Сиди-Бель-Аббесе

  • Прогноз погоды в Сиди-Бель-Аббесе
  • Монитор погоды в Сиди-Бель-Аббесе

АРХИВ ПОГОДЫ в Сиди-Бель-Аббесе

Время (UTC), дата Ветер
(напр.,м/с)
 
Видим.   Явления Облачность Т
(С)
Тd
(С)
f
(%)
Тe
(С)
Тes
(С)
Комфортность P
(гПа)
Po
(гПа)
Тmin
(С)
Tmax
(С)
R
(мм)
R24
(мм)
S
(см)
06 15.09 штиль 0 6000 м ясно +20.6 +20.1 97 +25 +25 комфорт 1015.7 961.0 +20.3
09 15.09 З 2 8000 м 3/3 600 м
[St]
+23.4 +20.4 83 +31 +36 очень
душно
1016.2 962.0
12 15.09 С 4 8000 м ясно +30.2 +19.6 53 +36 +46 очень
душно
1015.3 962.3
15 15.09 С 5 9000 м ясно +29.3 +20.0 57 +36 +40 очень
душно
1014.4 961.3
18 15.09 З 3 10 км 3/3 600 м
[Cu Sc As op Cs]
+25.6 +19.9 71 +31 +31 очень
душно
1016.0 962.2 +30.9
06 16.09 ЮЗ 1 6000 м 9/9 800 м
[Cu Sc]
+21.0 +19.5 91 +27 +27 душно 1017.1 962.4 +20.0
09 16.09 СЗ 2 6000 м 9/9 800 м
[Cu Sc]
+23.6 +19.3 77 +29 +29 душно 1018.5 964.2
12 16.09 СЗ 1 8000 м ясно +28.0 +19.3 59 +34 +51 опасность
солнечного
удара
1017.2 963.7
15 16.09 С 4 8000 м ясно +30.4 +18.5 49 +35 +40 очень
душно
1015.5 962.5
18 16.09 СВ 4 8000 м ясно +26.9 +20.5 68 +33 +33 очень
душно
1015.6 962.0 +30.9
06 17.09 штиль 0 6000 м 6/6 600 м
[St]
+18.3 +18.0 98 +19 +19 1016.2 961.0 +17.3
09 17.09 СВ 1 8000 м 6/0
[Ac cast Ci sp]
+23.3 +20.5 84 +31 +36 очень
душно
1016.2 961.9
12 17.09 В 2 10 км 9/5 600 м
[Cb calv Ac cuf]
+30.4 +20.4 55 +37 +40 очень
душно
1013.3 960.4
15 17.09 СВ 5 10 км гроза без осадков 10/5 700 м
[Cb cap Ac cast]
+29.2 +22.0 65 +38 +38 очень
душно
1012.7 959.7
18 17.09 СВ 4 10 км 4/1 600 м
[Cb cap As op Ci ing]
+27.9 +22.0 70 +36 +36 очень
душно
1011.2 958.0 +30.9
06 18.09 ЮЗ 2 6000 м 10/10 600 м
[Cu Sc]
+21.5 +20.0 91 +27 +27 душно 1013.5 959.1 +20.4
09 18.09 ЮЗ 2 6000 м 10/10 800 м
[Cu Sc]
+23.0 +20.1 84 +30 +30 очень
душно
1014.9 960.7
12 18.09 С 3 8000 м 8/6 800 м
[Cu Sc Ac cast]
+27.3 +20.7 67 +34 +37 очень
душно
1014.6 961.1
15 18.09 С 5 8000 м 6/5 800 м
[Cu Sc Ac cast]
+27.4 +20.6 66 +34 +36 очень
душно
1013.6 960.2
18 18.09 С 4 8000 м 6/3 900 м
[Sc Ac cast Ci sp]
+25.2 +19.3 70 +30 +30 душно 1014.2 960.4 +27.8
06 19.09 штиль 0 6000 м 8/8 600 м
[St]
+20.4 +20.1 98 +24 +24 комфорт 1015.3 960.6 +19.8
09 19.09 штиль 0 3000 м дымка 8/8 600 м
[St]
+22.6 +20.8 90 +30 +31 очень
душно
1016.0 961.6
12 19.09 СВ 1 9000 м 3/3 800 м
[Cu hum]
+27.9 +21.2 67 +35 +47 очень
душно
1014.6 961.2
15 19.09 С 2 10 км 4/4 800 м
[Cu hum]
+30.0 +21.6 61 +38 +43 очень
душно
1012.8 959.9
18 19.09 СВ 4 10 км 6/0 600 м
[Ac As Ci ing]
+25.4 +20.3 73 +31 +31 очень
душно
1014.0 960.2 +30.9
06 20.09 С 2 6000 м 8/8 600 м
[St]
+20.1 +19.5 96 +24 +24 комфорт 1012.6 958.0 +18.9
09 20.09 ЮЗ 3 8000 м 8/3 900 м
[Sc Ac cast Ci sp]
+24.4 +20.2 77 +30 +33 очень
душно
1013.3 959.4
12 20.09 С 4 8000 м 8/3 900 м
[Sc Ac cast Ci sp]
+31.4 +19.7 50 +37 +42 очень
душно
1011.9 959.3
15 20.09 С 5 8000 м 8/4 800 м
[Cu Sc Ci sp]
+31.4 +18.7 47 +36 +38 очень
душно
1010.5 957.9
18 20.09 С 3 8000 м 9/3 900 м
[Sc Ac cast Ci sp]
+28.5 +19.7 59 +34 +34 очень
душно
1011.0 957.9 +31.9
06 21.09 З 4 8000 м 8/8 800 м
[Cu Sc]
+21.4 +20.5 95 +27 +27 душно 1012.2 957.8 +20.9
09 21.09 З 4 8000 м 6/6 900 м
[St Ac cast]
+23.8 +19.7 78 +29 +31 душно 1013.9 959.9
12 21.09 СЗ 3 10 км 9/3 900 м
[Sc Ac cast Ci sp]
+27.3 +22.4 75 +36 +41 очень
душно
1012.2 958.9
15 21.09 С 3 10 км 9/3 900 м
[Sc Ac cast Ci sp]
+27.3 +21.0 69 +34 +37 очень
душно
1012.0 958.7
18 21.09 С 3 10 км 8/4 600 м
[Cb calv Ac cuf]
+26.3 +18.5 62 +31 +31 душно 1011.6 958.1 +29.0

 

Местоположение метеостанции Сиди-Бель-Аббес (Алжир): широта 35.20 долгота -0.62 высота над уровнем моря 476 м.

В архиве по умолчанию представлена погода в Сиди-Бель-Аббесе за последнюю неделю. Архивные данные за месяц целиком и за предыдущие месяцы, начиная с января 2011 года, Вы можете получить, выбрав интересующий диапазон дат из раскрывающегося списка и нажав кнопку "Ввод!".


*Определитесь, кто Вы:
робот инопланетянин человек

Внимание! Время в таблицах - всемирное. Для получения местного времени необходимо прибавить поправку, которая равна 1 ч.

Смотрите также архив погоды в соседних городах и на ближайших метеорологических станциях:

Погода в Оран-Тафрауи (Алжир) (32 км)
Погода в Оран аэропорту (Алжир) (48 км)
Погода в Оране (Алжир) (56 км)
Погода в Бени-Сафе (Алжир) (67 км)
Погода в Грисе (Алжир) (70 км)
Погода в Арзеве (Алжир) (76 км)
Погода в Саиде (Алжир) (79 км)
Погода в Аэропорту Messali El Hadj (Алжир) (80 км)
Погода в Мостаганеме (Алжир) (101 км)
Погода в Багнии (Алжир) (114 км)

Пояснения к столбцам:

Ветер - указаны скорость ветра в м/с - средняя за 10 мин, порывы в срок и между сроками (в фигурных скобках) и направление, откуда дует ветер: С - северный, СВ - северо-восточный, В - восточный, ЮВ - юго-восточный, Ю - южный, ЮЗ - юго-западный, З - западный, СЗ - северо-западный.
Видимость - горизонтальная дальность видимости в метрах или километрах. При видимости от 1 до 10 км при отсутствии осадков обычно наблюдается дымка, при ухудшении видимости до 1 км и менее - туман. В сухую погоду видимость может ухудшаться дымом, пылью или мглою.
Явления - указаны атмосферные явления, наблюдавшиеся в срок или в последний час перед сроком; фигурными скобками обозначены явления, наблюдавшиеся между сроками (за 1-3 часа до срока); квадратными скобками обозначены град или гололедные отложения с указанием их диаметра в мм.
Облачность - указаны через наклонную черту общая и нижняя облачность в баллах и высота нижней границы облаков в метрах; квадратными скобками обозначены формы облаков: Ci - перистые, Cs - перисто-слоистые, Cc - перисто-кучевые, Ac - высококучевые, As - высокослоистые, Sc - слоисто-кучевые, Ns - слоисто-дождевые, Cu - кучевые, Cb - кучево-дождевые. Подробнее классификацию облаков см. в Атласе облаков (PDF).
T - Температура воздуха - температура, измеренная на высоте 2 м над землей.
Td - Температура точки росы - температура, при понижении до которой содержащийся в воздухе водяной пар достигнет насыщения.
f - Относительная влажность воздуха - влажноcть воздуха, измеренная на высоте 2 м над землей.
Te - Эффективная температура - температура, которую ощущает одетый по сезону человек в тени. Характеристика душности погоды. При расчете учитывается влияние влажности воздуха и скорости ветра на теплоощущения человека.
Tes - Эффективная температура на солнце - температура, которую ощущает человек, с поправкой на солнечный нагрев. Характеристика знойности погоды. Зависит от высоты солнца над горизонтом, облачности и скорости ветра. Ночью, в пасмурную погоду, а также при ветре 12 м/с и более поправка равна нулю.
P - Атмосферное давление - приведенное к уровню моря атмосферное давление.
Po - Атмосферное давление - измеренное на уровне метеостанции атмосферное давление.
Tmin - Минимальная температура - минимум температуры воздуха на высоте 2 м над землей.
Tmax - Максимальная температура - максимум температуры воздуха на высоте 2 м над землей.
R - Количество осадков - Количество выпавших осадков за период времени, мм. При наведении курсора мыши на число - период времени, за который выпало указанное количество осадков.
R24 - Количество осадков - Количество выпавших осадков за 24 часа, мм.
S - Снежный покров - Высота снежного покрова, см. При наведении курсора мыши на число - состояние снежного покрова и степень покрытия местности в баллах.